[[{"header":{"parameterUnit":"m.s-1","parameterCategory":1,"la1":30.2991,"la2":30.254,"lo1":-89.0895,"lo2":-89.0444,"dy":0.0017,"dx":0.0017,"nx":28,"ny":28,"refTime":"2025-05-29T21:00:00:Z","depth":0,"parameterNumber":2,"parameterNumberName":"U-component_of_WINDS"},"data":[0,0,0,0,0,0,0,0,0,0,0,0,0,0,0,0,0,0,0,0,0,0,0,0,0,0,0,0,0,0,0,0,0,0,0,0,0,0,0,0,0,0,0,0,0,0,0,0,0,0,0,0,0,0,0,0,0,0,-1.8511,-1.8511,0,-1.8455,-1.8454,-1.8454,-1.8434,-1.8434,-1.8435,-1.8435,-1.8372,-1.8371,-1.8369,0,0,0,0,0,0,0,0,0,0,0,0,0,-1.8598,-1.8596,-1.8511,-1.8511,-1.851,-1.8455,-1.8454,-1.8453,-1.8434,-1.8434,-1.8435,-1.8435,-1.8373,-1.8371,-1.8369,0,0,0,0,0,0,0,0,0,0,0,0,0,-1.8553,-1.8596,-1.8511,-1.8494,-1.8492,-1.8455,-1.8454,-1.8453,-1.8434,-1.8434,-1.8435,-1.8435,-1.8374,-1.8371,-1.8368,-1.8344,0,0,-1.836,-1.8358,0,0,0,0,0,0,0,0,-1.8555,-1.855,-1.8497,-1.8495,-1.8492,-1.8452,-1.8462,-1.8416,-1.8434,-1.8456,-1.8435,-1.8435,-1.8398,-1.8393,-1.8382,-1.8341,-1.8338,-1.8359,-1.8358,-1.8356,-1.8356,0,0,0,0,0,0,0,-1.8558,-1.8552,-1.8489,-1.8496,-1.8493,-1.8487,-1.8481,-1.8453,-1.8426,-1.8454,-1.8452,-1.8446,-1.8397,-1.8385,-1.838,-1.8337,-1.8359,-1.8357,-1.8355,-1.8354,-1.8272,-1.8271,0,0,0,0,0,0,-1.8565,-1.8555,-1.8491,-1.8487,-1.8526,-1.8485,-1.8479,-1.8465,-1.8426,-1.842,-1.8446,-1.8445,-1.8389,-1.8384,-1.8378,-1.8346,-1.8356,-1.8354,-1.8352,-1.8272,-1.8272,-1.8271,0,0,0,0,0,0,-1.8567,-1.856,-1.8493,-1.852,-1.8511,-1.8484,-1.8468,-1.8463,-1.8451,-1.842,-1.8414,-1.8439,-1.8389,-1.8382,-1.8352,-1.8343,-1.8353,-1.835,-1.8273,-1.8272,-1.8271,-1.8282,0,0,0,0,0,0,-1.857,-1.856,-1.8552,-1.852,-1.851,-1.847,-1.8467,-1.8462,-1.8447,-1.8446,-1.8412,-1.8406,-1.8389,-1.8357,-1.835,-1.834,-1.8348,-1.8273,-1.8272,-1.8272,-1.8282,-1.8282,-1.8281,0,0,0,0,0,-1.8573,-1.8557,-1.8552,-1.8544,-1.8499,-1.8469,-1.8463,-1.8445,-1.8446,-1.8436,-1.8416,-1.8407,-1.8346,-1.8354,-1.8346,-1.8335,-1.8274,-1.8273,-1.8272,-1.8283,-1.8282,-1.8281,0,0,0,0,0,0,-1.8587,-1.8552,-1.8546,-1.852,-1.8498,-1.8466,-1.8454,-1.8445,-1.8421,-1.8421,-1.8398,-1.839,-1.8362,-1.8346,-1.8355,-1.8308,-1.8309,-1.8306,-1.832,-1.8319,-1.8319,-1.8323,-1.8345,0,0,0,0,0,-1.8587,-1.8567,-1.8537,-1.8516,-1.8506,-1.8482,-1.8468,-1.8456,-1.8432,-1.8422,-1.84,-1.8375,-1.835,-1.8334,-1.8309,-1.828,-1.8272,-1.8269,-1.8268,-1.8268,-1.8265,-1.8247,-1.8245,-1.8267,-1.8267,-1.8267,0,0,-1.8586,-1.8565,-1.8554,-1.8519,-1.85,-1.8478,-1.8474,-1.8451,-1.8434,-1.8418,-1.8389,-1.8372,-1.8342,-1.8313,-1.8299,-1.8298,-1.8257,-1.8266,-1.8266,-1.8264,-1.8246,-1.8244,-1.8242,-1.8267,-1.8267,-1.8267,0,0,-1.8575,-1.8557,-1.8537,-1.8519,-1.8492,-1.8476,-1.8471,-1.8441,-1.8429,-1.84,-1.8387,-1.8366,-1.8323,-1.8303,-1.8287,-1.8267,-1.8257,-1.826,-1.8256,-1.8239,-1.8237,-1.8235,-1.8227,-1.8224,-1.8257,-1.8257,-1.8257,0,-1.8577,-1.8545,-1.8528,-1.8506,-1.849,-1.8476,-1.8455,-1.8438,-1.8403,-1.8392,-1.8392,-1.8338,-1.8318,-1.8283,-1.8278,-1.8266,-1.8258,-1.8263,-1.8239,-1.8237,-1.8235,-1.8227,-1.8224,-1.8258,-1.8258,-1.8258,-1.8258,0,-1.8549,-1.8527,-1.8514,-1.8483,-1.8465,-1.8444,-1.8422,-1.8407,-1.8396,-1.838,-1.8349,-1.8324,-1.8294,-1.8285,-1.8274,-1.8247,-1.8248,-1.8244,-1.8244,-1.8234,-1.8226,-1.8222,-1.8258,-1.8258,-1.8258,-1.8258,0,0,-1.8544,-1.8503,-1.8499,-1.8483,-1.8452,-1.8434,-1.8411,-1.8383,-1.8369,-1.8346,-1.8325,-1.829,-1.8286,-1.8268,-1.8254,-1.8239,-1.8223,-1.8237,-1.8236,-1.8234,-1.8191,-1.8193,-1.819,-1.8217,-1.8217,-1.8216,-1.8193,0,-1.8527,-1.8488,-1.8471,-1.8438,-1.8417,-1.8402,-1.8382,-1.836,-1.8344,-1.8322,-1.8304,-1.8278,-1.8276,-1.8265,-1.825,-1.8229,-1.8214,-1.823,-1.8196,-1.8195,-1.8202,-1.8186,-1.8188,-1.8168,-1.819,-1.8189,-1.8189,0,-1.8502,-1.848,-1.8445,-1.8415,-1.8406,-1.8388,-1.836,-1.834,-1.8314,-1.8303,-1.8283,-1.827,-1.8244,-1.8247,-1.821,-1.8221,-1.8206,-1.8193,-1.8192,-1.8187,-1.819,-1.8179,-1.8161,-1.8157,-1.8184,-1.8184,-1.8185,0,-1.8501,-1.8461,-1.8435,-1.8423,-1.8388,-1.8376,-1.836,-1.8335,-1.8318,-1.8293,-1.8282,-1.8254,-1.8239,-1.8217,-1.8196,-1.82,-1.816,-1.8161,-1.8149,-1.8149,-1.814,-1.814,-1.8118,-1.8132,-1.8132,-1.8133,-1.8133,0,-1.8483,-1.8462,-1.8434,-1.8418,-1.8393,-1.8374,-1.835,-1.8333,-1.831,-1.8289,-1.8275,-1.8255,-1.823,-1.8207,-1.819,-1.8161,-1.8154,-1.8143,-1.8139,-1.8144,-1.8145,-1.8133,-1.8133,-1.8132,-1.8132,-1.8132,-1.8132,0,-1.8477,-1.8457,-1.8428,-1.8397,-1.8389,-1.8372,-1.8345,-1.8328,-1.8311,-1.8285,-1.8277,-1.8251,-1.8222,-1.82,-1.8163,-1.8152,-1.812,-1.8116,-1.813,-1.8127,-1.8115,-1.8116,-1.8082,-1.8076,-1.8097,-1.8097,-1.8097,0,-1.8466,-1.845,-1.8417,-1.8403,-1.8388,-1.8365,-1.8348,-1.8328,-1.8311,-1.828,-1.8266,-1.8237,-1.8213,-1.8168,-1.8144,-1.8115,-1.8109,-1.81,-1.8105,-1.811,-1.8107,-1.8108,-1.8105,-1.8099,-1.8098,-1.8098,-1.8098,0,-1.8449,-1.844,-1.8417,-1.8391,-1.8372,-1.835,-1.8328,-1.8316,-1.8292,-1.8273,-1.8245,-1.8226,-1.8189,-1.8159,-1.8128,-1.811,-1.8099,-1.8097,-1.8092,-1.8096,-1.8104,-1.8098,-1.8127,-1.8098,-1.8098,-1.8098,-1.8098,-1.8098,-1.8439,-1.8423,-1.8398,-1.8373,-1.8354,-1.8333,-1.8316,-1.8297,-1.8273,-1.8242,-1.8231,-1.8202,-1.8174,-1.8131,-1.8113,-1.8089,-1.8088,-1.8081,-1.8079,-1.8078,-1.8078,-1.811,-1.8083,-1.8083,-1.8083,-1.8083,-1.8083,0,-1.842,-1.8403,-1.838,-1.835,-1.8329,-1.8323,-1.8298,-1.8281,-1.8255,-1.8231,-1.8208,-1.8174,-1.8146,-1.812,-1.809,-1.8075,-1.8069,-1.8067,-1.8067,-1.8063,-1.8081,-1.8087,-1.8072,-1.8072,-1.8072,-1.8072,-1.8072,-1.8072,-1.8408,-1.838,-1.8368,-1.8331,-1.8314,-1.8285,-1.8271,-1.8251,-1.8232,-1.8196,-1.8173,-1.8157,-1.8131,-1.8099,-1.8072,-1.8065,-1.8053,-1.8053,-1.8044,-1.8061,-1.8062,-1.8063,-1.8069,-1.8051,-1.8051,-1.8028,-1.8028,-1.8028]},{"header":{"parameterUnit":"m.s-1","parameterCategory":1,"la1":30.2991,"la2":30.254,"lo1":-89.0895,"lo2":-89.0444,"dy":0.0017,"dx":0.0017,"nx":28,"ny":28,"refTime":"2025-05-29T21:00:00:Z","depth":0,"parameterNumber":3,"parameterNumberName":"V-component_of_WINDS"},"data":[0,0,0,0,0,0,0,0,0,0,0,0,0,0,0,0,0,0,0,0,0,0,0,0,0,0,0,0,0,0,0,0,0,0,0,0,0,0,0,0,0,0,0,0,0,0,0,0,0,0,0,0,0,0,0,0,0,0,2.8876,2.8878,0,2.9004,2.9005,2.9007,2.9043,2.9042,2.9041,2.9041,2.9173,2.9177,2.9181,0,0,0,0,0,0,0,0,0,0,0,0,0,2.8667,2.8671,2.8876,2.8878,2.8879,2.9003,2.9005,2.9007,2.9043,2.9042,2.9041,2.904,2.9172,2.9177,2.9182,0,0,0,0,0,0,0,0,0,0,0,0,0,2.8772,2.8672,2.8876,2.8912,2.8917,2.9003,2.9005,2.9007,2.9043,2.9042,2.9041,2.904,2.917,2.9176,2.9182,2.9242,0,0,2.9201,2.9204,0,0,0,0,0,0,0,0,2.8766,2.878,2.8905,2.891,2.8915,2.9006,2.898,2.9086,2.9043,2.8995,2.9041,2.904,2.9118,2.9129,2.9155,2.9248,2.9254,2.9202,2.9206,2.9208,2.921,0,0,0,0,0,0,0,2.8759,2.8775,2.8927,2.8907,2.8913,2.8923,2.8937,2.9,2.9061,2.8999,2.9002,2.9017,2.9121,2.9149,2.9159,2.9256,2.9202,2.9207,2.9211,2.9214,2.9408,2.9409,0,0,0,0,0,0,2.8745,2.8768,2.8923,2.893,2.8837,2.8928,2.8943,2.8978,2.9061,2.9072,2.9018,2.9018,2.9139,2.9151,2.9163,2.9241,2.9208,2.9214,2.9218,2.9407,2.9408,2.941,0,0,0,0,0,0,2.8741,2.8759,2.8917,2.885,2.8871,2.8933,2.8971,2.8981,2.9009,2.9074,2.9086,2.9035,2.9139,2.9155,2.9223,2.9246,2.9217,2.9223,2.9405,2.9407,2.9409,2.9396,0,0,0,0,0,0,2.8734,2.8757,2.8779,2.8851,2.8875,2.8974,2.8973,2.8984,2.902,2.9022,2.9094,2.9105,2.9139,2.9213,2.9229,2.9254,2.9228,2.9403,2.9406,2.9409,2.9395,2.9397,2.94,0,0,0,0,0,2.8727,2.877,2.878,2.8798,2.8904,2.8975,2.8989,2.9027,2.9021,2.9045,2.9088,2.9102,2.9241,2.922,2.9238,2.9266,2.9402,2.9405,2.9408,2.9393,2.9397,2.94,0,0,0,0,0,0,2.8699,2.878,2.8792,2.8859,2.891,2.8981,2.9012,2.9029,2.9083,2.9082,2.9128,2.9144,2.921,2.9244,2.922,2.933,2.9322,2.9329,2.9305,2.9308,2.9311,2.9302,2.9233,0,0,0,0,0,2.8701,2.8751,2.8819,2.8872,2.8897,2.895,2.8982,2.9008,2.9062,2.9084,2.9131,2.9184,2.924,2.9276,2.9331,2.94,2.9417,2.9428,2.943,2.9432,2.9438,2.948,2.9486,2.942,2.942,2.942,0,0,2.8706,2.8756,2.8785,2.8868,2.891,2.8963,2.8968,2.9022,2.9062,2.9092,2.9161,2.9197,2.926,2.9329,2.9362,2.936,2.946,2.9436,2.9437,2.9442,2.9484,2.949,2.9495,2.9423,2.9422,2.9422,0,0,2.8741,2.8782,2.8833,2.8875,2.8939,2.8975,2.8987,2.9056,2.9081,2.915,2.9175,2.9223,2.9318,2.9362,2.9397,2.9451,2.9468,2.9468,2.9482,2.9522,2.9527,2.9532,2.9554,2.9561,2.9473,2.9473,2.9473,0,2.8738,2.8817,2.8856,2.8911,2.8948,2.8978,2.903,2.9069,2.9148,2.9174,2.917,2.9291,2.9335,2.9417,2.9431,2.9457,2.9474,2.946,2.9523,2.9529,2.9534,2.9555,2.9563,2.9473,2.9473,2.9473,2.9473,0,2.8812,2.8867,2.89,2.8976,2.9016,2.9069,2.9118,2.9155,2.9177,2.9213,2.9284,2.9338,2.9406,2.9427,2.9448,2.9513,2.951,2.9514,2.9508,2.9539,2.956,2.9568,2.9473,2.9473,2.9473,2.9473,0,0,2.8833,2.8931,2.8943,2.8979,2.9053,2.9097,2.9152,2.9218,2.925,2.9303,2.9352,2.9432,2.9438,2.9477,2.9505,2.954,2.9583,2.9541,2.9543,2.9548,2.966,2.9657,2.9666,2.9594,2.9595,2.9597,2.9655,0,2.8879,2.8978,2.9016,2.9098,2.9151,2.9181,2.9229,2.928,2.9316,2.9367,2.9407,2.9464,2.9465,2.949,2.9526,2.957,2.9606,2.9566,2.9642,2.9644,2.9627,2.9677,2.9674,2.9727,2.9664,2.9665,2.9666,0,2.8946,2.9001,2.9088,2.9158,2.9181,2.9224,2.9289,2.9336,2.9396,2.942,2.9465,2.9491,2.9552,2.9541,2.9627,2.9599,2.9632,2.9658,2.9661,2.9671,2.9658,2.969,2.9744,2.9753,2.9679,2.9678,2.9677,0,2.8956,2.9051,2.9117,2.9146,2.9228,2.9258,2.9294,2.9353,2.9391,2.9448,2.9474,2.9537,2.9572,2.9621,2.9664,2.9652,2.9747,2.9739,2.977,2.9769,2.979,2.9788,2.9852,2.9808,2.9808,2.9808,2.9808,0,2.9004,2.9057,2.9122,2.9163,2.9223,2.9267,2.9326,2.9364,2.9416,2.9466,2.9495,2.9541,2.9594,2.9647,2.9681,2.9749,2.9764,2.9786,2.9795,2.9785,2.9782,2.9808,2.9806,2.981,2.981,2.9809,2.9809,0,2.9025,2.9071,2.9145,2.9217,2.9237,2.9278,2.9341,2.9382,2.942,2.9482,2.9499,2.9558,2.9623,2.967,2.9753,2.9776,2.9849,2.9857,2.9829,2.9834,2.9864,2.9861,2.9948,2.9963,2.9907,2.9907,2.9907,0,2.9054,2.9096,2.9173,2.9208,2.9244,2.93,2.9339,2.9384,2.9424,2.9497,2.953,2.9596,2.9652,2.9754,2.9806,2.987,2.9881,2.9907,2.9891,2.988,2.9884,2.9882,2.9888,2.991,2.991,2.991,2.9911,0,2.9101,2.9123,2.9178,2.9242,2.9288,2.9341,2.9394,2.9421,2.9476,2.952,2.9586,2.963,2.9715,2.9782,2.9852,2.989,2.9911,2.9915,2.9926,2.9917,2.99,2.9912,2.9838,2.9913,2.9913,2.9913,2.9913,2.9913,2.9129,2.9168,2.9229,2.9291,2.9336,2.9385,2.9428,2.9471,2.9527,2.96,2.9624,2.9693,2.9755,2.9851,2.989,2.9946,2.9946,2.9961,2.9965,2.9969,2.997,2.989,2.9959,2.9959,2.9959,2.9959,2.9959,0,2.918,2.9221,2.9277,2.9351,2.94,2.9414,2.9474,2.9514,2.9575,2.963,2.9684,2.9762,2.9827,2.9884,2.9952,2.9986,2.9998,3.0003,3.0002,3.0011,2.9965,2.995,2.9993,2.9993,2.9993,2.9993,2.9993,2.9993,2.9212,2.928,2.9309,2.94,2.9441,2.9509,2.9543,2.9589,2.9634,2.9719,2.9773,2.981,2.9867,2.9939,3.0001,3.0016,3.0041,3.0044,3.0062,3.0018,3.0014,3.001,2.9996,3.0049,3.0049,3.0104,3.0104,3.0105]}]]